Regional Weather Roundup
Issued by NWS

Home | Current Version | Previous Version | Text Only | Print | Product List | Glossary On
Versions: 1 2 3 4 5 6 7 8 9 10 11 12 13 14 15 16 17 18 19 20 21 22 23 24 25 26 27 28 29 30 31 32 33 34 35 36 37 38 39 40 41 42 43 44 45 46 47 48 49 50
000
ASUS43 KLMK 091202
RWRKY
KENTUCKY REGIONAL WEATHER ROUNDUP
NATIONAL WEATHER SERVICE LOUISVILLE KY
700 AM EST TUE FEB 09 2016

NOTE "FAIR" INDICATES FEW OR NO CLOUDS BELOW 12,000 FEET
WITH NO SIGNIFICANT WEATHER AND/OR OBSTRUCTIONS TO VISIBILITY.

KYZ001>023-026-027-061>063-070>075-091300-
WESTERN AND SOUTH CENTRAL KENTUCKY

CITY           SKY/WX    TMP DP  RH WIND       PRES   REMARKS
PADUCAH        LGT SNOW  22  16  78 NW12      29.91R WCI  10
HENDERSON      CLOUDY    21  14  73 NW10      29.88R WCI  10
OWENSBORO      FLURRIES  22  16  78 W8        29.87R WCI  13
HOPKINSVILLE   NOT AVBL
BOWLING GREEN  CLOUDY    23  14  68 W8        29.88R WCI  14
GLASGOW        NOT AVBL
$$

KYZ024-025-028>034-038-045-046-053-091300-
NORTH CENTRAL KENTUCKY

CITY           SKY/WX    TMP DP  RH WIND       PRES   REMARKS
LOUISVILLE/SDF FLURRIES  22  16  78 W8        29.82R WCI  12
LOUISVILLE/LOU CLOUDY    22  15  75 W13       29.82R WCI  10
FORT KNOX      FLURRIES  19  14  79 W8        29.80R WCI   9
$$

KYZ035>037-039>044-047>052-055>060-089>105-091300-
NORTHEAST KENTUCKY

CITY           SKY/WX    TMP DP  RH WIND       PRES   REMARKS
LEXINGTON      CLOUDY    20  14  77 W10       29.78R WCI   9
COVINGTON      LGT SNOW  20  17  88 SW7       29.73R FOG     WCI  11
FRANKFORT      CLOUDY    20  14  77 W6        29.78R WCI  12
$$

KYZ054-064>069-076>088-106>120-091300-
SOUTHEAST KENTUCKY

CITY           SKY/WX    TMP DP  RH WIND       PRES   REMARKS
JACKSON        LGT SNOW  20  14  77 W8        29.74R WCI  10
LONDON         LGT SNOW  20  14  77 W9        29.78R WCI   9
SOMERSET       NOT AVBL
MIDDLESBORO    NOT AVBL
MONTICELLO     FLURRIES  21  15  78 W8G20     29.84R WCI  11
$$




USA.gov is the U.S. government's official web portal to all federal, state and local government web resources and services.